Regional Weather Roundup
Issued by NWS Charleston, SC

Current Version | Previous Version | Text Only | Print | Product List | Glossary Off
Versions: 1 2 3 4 5 6 7 8 9 10 11 12 13 14 15 16 17 18 19 20 21 22 23 24 25 26 27 28 29 30 31 32 33 34 35 36 37 38 39 40 41 42 43 44 45 46 47 48 49 50

000
ASUS42 KCHS 191410
RWRCHS
REGIONAL WEATHER ROUNDUP
NATIONAL WEATHER SERVICE CHARLESTON SC
900 AM EST FRI DEC 19 2014

NOTE: "FAIR" INDICATES FEW OR NO CLOUDS BELOW 12,000 FEET WITH NO
SIGNIFICANT WEATHER AND/OR OBSTRUCTIONS TO VISIBILITY.

NOT ALL STATIONS ARE QUALITY CONTROLLED BY THE NATIONAL
WEATHER SERVICE. USE DATA WITH CAUTION...ESPECIALLY
DEWPOINT OBSERVATIONS.

SCZ027-030-031-034>040-042>050-191500-
...SOUTHEAST SOUTH CAROLINA...

CITY           SKY/WX    TMP DP  RH WIND       PRES   REMARKS
N CHARLESTON   PTSUNNY   49  45  86 CALM      30.16R
WATERFRONT PRK   N/A     54 N/A N/A CALM        N/A
MOUNT PLEASANT FAIR      45  45 100 CALM      30.16R
PINOPOLIS        N/A     52  45  76 CALM      30.07R
MONCKS CORNER  FAIR      46  43  87 CALM      30.16R
SUMMERVILLE    NOT AVBL
BEAUFORT MCAS  MOSUNNY   52  41  66 NW7       30.15R
BEAUFORT ARPT  FAIR      50  43  76 CALM      30.15R
HILTON HEAD IS MOSUNNY   50  43  76 N3        30.16R
WALTERBORO     MOSUNNY   46  46 100 NW3       30.16R
ALLENDALE      FAIR      43  41  93 CALM      30.15S

...SOUTHERN MIDLANDS AND PEE DEE...

CITY           SKY/WX    TMP DP  RH WIND       PRES   REMARKS
GEORGETOWN     NOT AVBL
KINGSTREE      NOT AVBL
ORANGEBURG     MOSUNNY   41  36  82 CALM      30.16R
BARNWELL         N/A     41  39  93 CALM      30.17R
AIKEN          FAIR      43  39  87 N3        30.18R
MANNING        NOT AVBL
COLUMBIA       PTSUNNY   40  36  86 CALM      30.16R
SUMTER         SUNNY     42  35  75 NE8       30.16R
FLORENCE       MOSUNNY   43  33  68 NE6       30.17R
MYRTLE BEACH   SUNNY     45  36  70 N8        30.16R
N MYRTLE BEACH MOSUNNY   45  39  79 NE7       30.16R

$$

GAZ063-065-086>088-099>101-113>116-118-119-134>141-150-191500-
...SOUTHEAST GEORGIA...

CITY           SKY/WX    TMP DP  RH WIND       PRES   REMARKS
SAVANNAH ARPT  PTSUNNY   50  39  66 N5        30.16R
HUNTER AAF     SUNNY     49  41  72 NW3       30.13R
FORT STEWART   MOSUNNY   50  39  64 N5        30.15R
STATESBORO     PTSUNNY   46  40  78 CALM      30.15F
SYLVANIA       PTSUNNY   42  39  91 CALM      30.17R
CLAXTON        FAIR      43  43 100 CALM      30.16S

...CSRA...CENTRAL AND FAR SOUTHEAST GEORGIA...

CITY           SKY/WX    TMP DP  RH WIND       PRES   REMARKS
THOMSON        PTSUNNY   42  40  95 CALM      30.20S
AUGUSTA-BUSH   MOSUNNY   41  37  86 CALM      30.17R
AUGUSTA-DANIEL MOSUNNY   46  38  73 NW8       30.16R
SWAINSBORO     FAIR      46  41  81 N5        30.16F
VIDALIA        MOSUNNY   46  37  71 N6        30.16R
EASTMAN        FAIR      41  40  97 CALM      30.18S
HAZLEHURST     FAIR      47  39  74 N3        30.15S
ALMA           SUNNY     50  36  58 N6        30.15S
WAYCROSS       CLOUDY    53  42  67 CALM      30.15S
JESUP          FAIR      50  45  81 CALM      30.16R
BAXLEY         FAIR      50  37  62 N5        30.15S
BRUNSWICK      CLOUDY    50  41  71 CALM      30.16S
SAINT SIMONS   CLOUDY    52  41  66 N5        30.15R

$$

SCZ027-028-034-036>038-045-046-048>050-GAZ119-141-191500-
...LAKE AND SUPPLEMENTAL COASTAL OBSERVATIONS...

STATION/POSITION TIME  TEMP    WIND        PRES    WAVE   SWELL
                       AIR SEA DIR/SP/G            HT/PER HT/PER/DIR
                 (UTC) (F)     (DEG/KT/KT) (MB)    (FT/S) (FT/S/D)
UPR LAKE MARION  NOT AVBL
WINYAH BAY       1300   42     310/  1     1019.0S
LAKE MURRAY      1300   41     330/  1/  3 1020.3R
ACE BASIN NERRS  1300   40        CALM     1020.0R
FORT PULASKI     1400   49 56  330/  6/  8 1021.2S
SAPELO ISLAND    1300   49     350/  4     1020.0S

$$

ANZ835-935-AMZ111-154-330-350-352-354-370-450-454-472-191500-
...C-MAN AND BUOY OBSERVATIONS...

STATION/POSITION TIME  TEMP    WIND        PRES    WAVE   SWELL
                       AIR SEA DIR/SP/G            HT/PER HT/PER/DIR
                 (UTC) (F)     (DEG/KT/KT) (MB)    (FT/S) (FT/S/D)
BUOY 41004       1400   61 70  320/  6/  8 1020.3R   1/10   2/10
BUOY 41008       1400   56 57  330/  8/ 10 1020.8R   1/11
FOLLY BEACH CMAN 1300   49     310/  3/  4 1020.6R
CAPERS NEARSHORE 1300   54     350/  6/  6   N/A
FRIPP NEARSHORE  NOT AVBL


STATION/POSITION TIME  TEMP    WIND        PRES    WAVE   SWELL
                       AIR SEA DIR/SP/G            HT/PER HT/PER/DIR
                 (UTC) (F)     (DEG/KT/KT) (MB)    (FT/S) (FT/S/D)
5E ST. MARYS GA  1400      60                N/A     1/10
FRYING PAN BUOY  1400   56 64   10/ 12/ 14 1021.2R   2/ 9   2/100/ 9
BUOY 41025       1400   48                 1020.5R   2/ 8
CAPE LOOKOUT NC  1300   45     350/  7/  9 1020.0R
BUOY 41002       1348   69 72  310/ 10/ 14 1018.8R   3/ 8   3/ 20/ 8
BUOY 41010       1400   70 76  320/  6/  8 1019.8R   2/10   2/ 70/10
ST AUGUSTINE FL  1400   54     300/  2/  3 1021.5R


$$


USA.gov is the U.S. government's official web portal to all federal, state and local government web resources and services.